Location: Heidgraben
(53.7081°N, 9.6576°E)
Time: 04:41:26
(UTC+00:00)

Cosmos 1340 - Pass Details

Date: 05 July 2020
Orbit: 502 x 504 km, 81.2° (Epoch: 06 August)

Event Time Altitude Azimuth Distance (km) Brightness Sun altitude
Exits shadow 23:34:22 22° 206° (SSW) 1,155 3.9 -13.6°
Maximum altitude 23:36:42 67° 285° (WNW) 551 2.8 -13.6°
Drops below altitude 10° 23:40:29 10° 9° (N) 1,727 6.8 -13.6°
Sets 23:42:38 0° 12° (NNE) 2,617 8.2 -13.5°
